Погода в Тотоникапане

Гватемала     14°54′42″N   91°21′35″W
темп.,
°C
ветер,
м/с
пор.,
м/с
влажн.,
%
обл.,
%
осадки,
мм/ч
давл.,
гПа
погр.,
м
24 сентября, пт
пт2400:00+12всв1198100 0.9 101873
03:00+11зсз019897 0.3 101738
06:00+11зсз009789 0.3 101813
09:00+16ссв118380 0.0 1018554
12:00+19св326887 1.1 10151208
15:00+17всв338492 3.0 1013733
18:00+14всв2296100 5.8 101636
21:00+12вюв1197100 1.0 101918
25 сентября, сб
сб2500:00+11юв0199100 1.1 101911
03:00+11сз1198100 0.0 1017104
06:00+11зсз019599 0.0 101935
09:00+16ссв226986 0.0 1018540
12:00+21св444676 0.0 10151678
15:00+20в445764 0.7 10131609
18:00+13в229513 2.1 101639
21:00+11вюв019898 1.4 102010
26 сентября, вс
вс2600:00+11зюз1198100 1.8 102013
03:00+11зсз1198100 0.0 101914
06:00+11зсз1197100 0.0 102033
09:00+16ссв227698 0.0 1020540
12:00+21св435022 0.0 10161751
15:00+20всв445974 0.6 10131497
18:00+13всв229034 1.2 101713
21:00+11всв019798 0.3 102111
27 сентября, пн
пн2700:00+11сз119961 0.3 102120
03:00+11зсз1195100 0.0 101990
06:00+10з129615 0.0 102018
09:00+18ссв226619 0.0 1019654
12:00+19св236794 1.1 10161249
15:00+18всв238299 4.4 1014603
18:00+13св119696 8.6 101615
21:00+12ссв019795 0.5 101912
28 сентября, вт
вт2800:00+11зсз119842 0.5 101914
03:00+11зюз0197100 0.0 101713
06:00+11з119788 0.0 101813
09:00+17св117799 0.0 1017586
12:00+19в226794 1.1 10151231
15:00+17в2384100 1.6 1013604
18:00+13вюв229796 4.5 101549
21:00+13юв119698 1.1 101815